| time (UTC) | temp F | wind direction | speed MPH | gust MPH | rain 1hr in | rain 24hr in | rain mn in | humidity % | barometer mb |
| 20260508004315 | 0 | 274 | 0.0 | 0.0 | 0.00 | 0.13 | 0.10 | 1012.6 | |
| 20260508004112 | 0 | 274 | 0.0 | 0.0 | 0.00 | 0.13 | 0.10 | 1012.5 | |
| 20260508003912 | 0 | 274 | 0.0 | 1.0 | 0.00 | 0.13 | 0.10 | 1012.5 | |
| 20260508003507 | 0 | 274 | 0.0 | 1.0 | 0.00 | 0.13 | 0.10 | 1012.5 | |
| 20260508003306 | 0 | 274 | 0.0 | 1.0 | 0.00 | 0.13 | 0.10 | 1012.6 | |
| 20260508003102 | 0 | 274 | 0.0 | 1.0 | 0.00 | 0.13 | 0.10 | 1012.5 | |
| 20260508002500 | 0 | 274 | 0.0 | 1.0 | 0.00 | 0.13 | 0.10 | 1012.4 | |
| 20260508002258 | 0 | 274 | 0.0 | 1.0 | 0.00 | 0.13 | 0.10 | 1012.4 | |
| 20260508002055 | 0 | 274 | 0.0 | 1.0 | 0.00 | 0.13 | 0.10 | 1012.4 | |
| 20260508001852 | 0 | 274 | 0.0 | 1.0 | 0.00 | 0.13 | 0.10 | 1012.3 | |
| 20260508001652 | 0 | 273 | 0.0 | 1.0 | 0.00 | 0.13 | 0.10 | 1012.3 | |
| 20260508001449 | 0 | 273 | 0.0 | 1.0 | 0.00 | 0.13 | 0.10 | 1012.2 | |
| 20260508001247 | 0 | 273 | 0.0 | 1.0 | 0.00 | 0.13 | 0.10 | 1012.2 | |
| 20260508001045 | 0 | 273 | 0.0 | 1.0 | 0.00 | 0.13 | 0.10 | 1012.3 | |
| 20260508000644 | 0 | 273 | 0.0 | 0.0 | 0.00 | 0.13 | 0.10 | 1012.2 | |
| 20260508000443 | 0 | 273 | 0.0 | 1.0 | 0.00 | 0.13 | 0.10 | 1012.2 | |
| 20260508000242 | 0 | 273 | 0.0 | 2.0 | 0.00 | 0.13 | 0.10 | 1012.1 | |
| 20260508000038 | 0 | 273 | 0.0 | 2.0 | 0.00 | 0.13 | 0.10 | 1012.0 | |
| 20260507235636 | 0 | 273 | 0.0 | 2.0 | 0.00 | 0.13 | 0.10 | 1011.8 | |
| 20260507235435 | 0 | 273 | 0.0 | 1.0 | 0.00 | 0.13 | 0.10 | 1012.0 | |
| 20260507235236 | 0 | 273 | 0.0 | 1.0 | 0.00 | 0.13 | 0.10 | 1012.1 | |
| 20260507234833 | 0 | 273 | 0.0 | 2.0 | 0.00 | 0.13 | 0.10 | 1012.1 | |
| 20260507234633 | 0 | 273 | 0.0 | 2.0 | 0.00 | 0.13 | 0.10 | 1012.0 | |
| 20260507234430 | 0 | 273 | 0.0 | 2.0 | 0.00 | 0.13 | 0.10 | 1012.0 | |
| 20260507234231 | 0 | 273 | 0.0 | 2.0 | 0.00 | 0.13 | 0.10 | 1012.0 | |
| 20260507233830 | 0 | 274 | 0.0 | 0.0 | 0.00 | 0.13 | 0.10 | 1012.0 | |
| 20260507233630 | 0 | 275 | 0.0 | 2.0 | 0.00 | 0.13 | 0.10 | 1011.9 | |
| 20260507233428 | 0 | 275 | 0.0 | 2.0 | 0.00 | 0.13 | 0.10 | 1011.9 | |
| 20260507233229 | 0 | 275 | 0.0 | 2.0 | 0.00 | 0.13 | 0.10 | 1011.8 | |
| 20260507233028 | 0 | 286 | 0.0 | 2.0 | 0.00 | 0.13 | 0.10 | 1011.7 | |
| 20260507232826 | 0 | 286 | 0.0 | 2.0 | 0.00 | 0.13 | 0.10 | 1011.6 | |
| 20260507232621 | 0 | 288 | 0.0 | 2.0 | 0.00 | 0.13 | 0.10 | 1011.5 | |
| 20260507232419 | 0 | 288 | 0.0 | 2.0 | 0.00 | 0.13 | 0.10 | 1011.5 | |
| 20260507232219 | 0 | 288 | 0.0 | 2.0 | 0.00 | 0.13 | 0.10 | 1011.5 | |
| 20260507232018 | 0 | 288 | 0.0 | 2.0 | 0.00 | 0.13 | 0.10 | 1011.5 | |
| 20260507231815 | 0 | 251 | 0.0 | 2.0 | 0.00 | 0.13 | 0.10 | 1011.5 | |
| 20260507231615 | 0 | 250 | 0.0 | 2.0 | 0.00 | 0.13 | 0.10 | 1011.4 | |
| 20260507231416 | 0 | 251 | 0.0 | 2.0 | 0.00 | 0.13 | 0.10 | 1011.4 | |
| 20260507231215 | 0 | 191 | 0.0 | 1.0 | 0.00 | 0.13 | 0.10 | 1011.4 | |
| 20260507231015 | 0 | 191 | 0.0 | 1.0 | 0.00 | 0.13 | 0.10 | 1011.4 | |
| 20260507230812 | 0 | 191 | 0.0 | 1.0 | 0.00 | 0.13 | 0.10 | 1011.4 | |
| 20260507230612 | 0 | 191 | 0.0 | 1.0 | 0.00 | 0.13 | 0.10 | 1011.5 | |
| 20260507230413 | 0 | 191 | 0.0 | 1.0 | 0.00 | 0.13 | 0.10 | 1011.5 | |
| 20260507230213 | 0 | 191 | 0.0 | 1.0 | 0.00 | 0.13 | 0.10 | 1011.5 | |
| 20260507230013 | 0 | 191 | 0.0 | 3.0 | 0.00 | 0.13 | 0.10 | 1011.4 | |
| 20260507225808 | 0 | 191 | 0.0 | 3.0 | 0.00 | 0.13 | 0.10 | 1011.4 | |
| 20260507225609 | 0 | 191 | 0.0 | 3.0 | 0.00 | 0.13 | 0.10 | 1011.4 | |
| 20260507225408 | 0 | 191 | 0.0 | 3.0 | 0.00 | 0.13 | 0.10 | 1011.3 | |
| 20260507225207 | 0 | 191 | 0.0 | 3.0 | 0.00 | 0.13 | 0.10 | 1011.3 | |
| 20260507224805 | 0 | 159 | 0.0 | 2.0 | 0.00 | 0.13 | 0.10 | 1011.3 | |
| 20260507224602 | 0 | 159 | 0.0 | 2.0 | 0.00 | 0.13 | 0.10 | 1011.2 | |
| 20260507224402 | 0 | 159 | 0.0 | 2.0 | 0.00 | 0.13 | 0.10 | 1011.1 | |
| 20260507224159 | 0 | 160 | 0.0 | 1.0 | 0.00 | 0.13 | 0.10 | 1011.1 | |
| 20260507223959 | 0 | 160 | 0.0 | 1.0 | 0.00 | 0.13 | 0.10 | 1011.0 | |
| 20260507223757 | 0 | 159 | 0.0 | 1.0 | 0.00 | 0.13 | 0.10 | 1011.0 | |
| 20260507223558 | 0 | 159 | 0.0 | 2.0 | 0.00 | 0.13 | 0.10 | 1011.0 | |
| 20260507223152 | 0 | 159 | 0.0 | 2.0 | 0.00 | 0.13 | 0.10 | 1011.1 | |
| 20260507222951 | 0 | 159 | 0.0 | 2.0 | 0.00 | 0.13 | 0.10 | 1011.0 | |
| 20260507222548 | 0 | 159 | 0.0 | 2.0 | 0.00 | 0.13 | 0.10 | 1011.0 | |
| 20260507222345 | 0 | 159 | 0.0 | 2.0 | 0.00 | 0.13 | 0.10 | 1011.0 | |
| 20260507222144 | 0 | 159 | 0.0 | 2.0 | 0.00 | 0.13 | 0.10 | 1010.9 | |
| 20260507221942 | 0 | 159 | 0.0 | 2.0 | 0.00 | 0.13 | 0.10 | 1011.0 | |
| 20260507221739 | 0 | 207 | 0.0 | 0.0 | 0.00 | 0.13 | 0.10 | 1011.0 | |
| 20260507221540 | 0 | 207 | 0.0 | 0.0 | 0.00 | 0.13 | 0.10 | 1011.1 | |
| 20260507221339 | 0 | 207 | 0.0 | 0.0 | 0.00 | 0.13 | 0.10 | 1010.9 | |
| 20260507221137 | 0 | 207 | 0.0 | 0.0 | 0.00 | 0.13 | 0.10 | 1010.9 | |
| 20260507220937 | 0 | 207 | 0.0 | 0.0 | 0.00 | 0.13 | 0.10 | 1011.0 | |
| 20260507220737 | 0 | 207 | 0.0 | 0.0 | 0.00 | 0.13 | 0.10 | 1011.1 | |
| 20260507220537 | 0 | 226 | 0.0 | 0.0 | 0.00 | 0.13 | 0.10 | 1011.1 | |
| 20260507220337 | 0 | 226 | 0.0 | 0.0 | 0.00 | 0.13 | 0.10 | 1011.2 | |
| 20260507220136 | 0 | 226 | 0.0 | 2.0 | 0.00 | 0.13 | 0.10 | 1011.2 | |
| 20260507215936 | 0 | 227 | 0.0 | 2.0 | 0.00 | 0.13 | 0.10 | 1011.2 | |
| 20260507215734 | 0 | 227 | 0.0 | 4.0 | 0.00 | 0.13 | 0.10 | 1011.2 | |
| 20260507215531 | 0 | 223 | 0.0 | 4.0 | 0.00 | 0.13 | 0.10 | 1011.2 | |
| 20260507215128 | 0 | 238 | 0.0 | 4.0 | 0.00 | 0.13 | 0.10 | 1011.4 | |
| 20260507214928 | 0 | 236 | 0.0 | 4.0 | 0.00 | 0.13 | 0.10 | 1011.4 | |
| 20260507214731 | 0 | 138 | 0.0 | 0.0 | 0.00 | 0.13 | 0.10 | 1011.3 | |
| 20260507214525 | 0 | 138 | 0.0 | 2.0 | 0.00 | 0.13 | 0.10 | 1011.3 | |
| 20260507214324 | 0 | 136 | 1.0 | 5.0 | 0.00 | 0.13 | 0.10 | 1011.3 | |
| 20260507214124 | 0 | 136 | 1.0 | 5.0 | 0.00 | 0.13 | 0.10 | 1011.3 | |
| 20260507213922 | 0 | 136 | 1.0 | 5.0 | 0.00 | 0.13 | 0.10 | 1011.2 | |
| 20260507213719 | 0 | 136 | 1.0 | 5.0 | 0.00 | 0.13 | 0.10 | 1011.1 | |
| 20260507213518 | 0 | 141 | 1.0 | 5.0 | 0.00 | 0.13 | 0.10 | 1010.9 | |
| 20260507213315 | 0 | 157 | 1.0 | 4.0 | 0.00 | 0.13 | 0.10 | 1010.9 | |
| 20260507213117 | 0 | 149 | 1.0 | 4.0 | 0.00 | 0.13 | 0.10 | 1010.8 | |
| 20260507212915 | 0 | 149 | 1.0 | 4.0 | 0.00 | 0.13 | 0.10 | 1010.8 | |
| 20260507212714 | 0 | 165 | 1.0 | 4.0 | 0.00 | 0.13 | 0.10 | 1010.8 | |
| 20260507212512 | 0 | 347 | 1.0 | 3.0 | 0.00 | 0.13 | 0.10 | 1010.8 | |
| 20260507212311 | 0 | 316 | 1.0 | 5.0 | 0.00 | 0.13 | 0.10 | 1011.1 | |
| 20260507212112 | 0 | 316 | 0.0 | 5.0 | 0.00 | 0.13 | 0.10 | 1011.2 | |
| 20260507211910 | 0 | 315 | 0.0 | 5.0 | 0.00 | 0.13 | 0.10 | 1011.1 | |
| 20260507211707 | 0 | 315 | 0.0 | 5.0 | 0.00 | 0.13 | 0.10 | 1011.1 | |
| 20260507211506 | 0 | 314 | 0.0 | 5.0 | 0.00 | 0.13 | 0.10 | 1011.1 | |
| 20260507211303 | 0 | 327 | 0.0 | 0.0 | 0.00 | 0.13 | 0.10 | 1011.1 | |
| 20260507210859 | 0 | 327 | 0.0 | 1.0 | 0.00 | 0.13 | 0.10 | 1011.0 | |
| 20260507210500 | 0 | 327 | 0.0 | 3.0 | 0.00 | 0.13 | 0.10 | 1011.0 | |
| 20260507210258 | 0 | 327 | 0.0 | 3.0 | 0.00 | 0.13 | 0.10 | 1011.1 | |
| 20260507210100 | 0 | 327 | 0.0 | 3.0 | 0.00 | 0.13 | 0.10 | 1011.1 | |
| 20260507205900 | 0 | 327 | 0.0 | 3.0 | 0.00 | 0.13 | 0.10 | 1010.9 | |
| 20260507205659 | 0 | 327 | 1.0 | 3.0 | 0.00 | 0.13 | 0.10 | 1010.9 | |
| 20260507205455 | 0 | 107 | 1.0 | 3.0 | 0.00 | 0.13 | 0.10 | 1011.0 | |
| 20260507205252 | 0 | 84 | 1.0 | 3.0 | 0.00 | 0.13 | 0.10 | 1010.9 | |
| 20260507204851 | 0 | 84 | 1.0 | 3.0 | 0.00 | 0.13 | 0.10 | 1011.0 | |
| 20260507204451 | 0 | 217 | 1.0 | 4.0 | 0.00 | 0.13 | 0.10 | 1011.0 | |
| 20260507204252 | 0 | 211 | 1.0 | 4.0 | 0.00 | 0.13 | 0.10 | 1010.9 | |
| 20260507204052 | 0 | 213 | 1.0 | 4.0 | 0.00 | 0.13 | 0.10 | 1010.9 | |
| 20260507203850 | 0 | 213 | 1.0 | 4.0 | 0.00 | 0.13 | 0.10 | 1010.7 | |
| 20260507203650 | 0 | 215 | 1.0 | 4.0 | 0.00 | 0.13 | 0.10 | 1010.7 | |
| 20260507203451 | 0 | 215 | 1.0 | 4.0 | 0.00 | 0.13 | 0.10 | 1010.6 | |
| 20260507203251 | 0 | 106 | 1.0 | 4.0 | 0.00 | 0.13 | 0.10 | 1010.6 | |
| 20260507203049 | 0 | 155 | 1.0 | 5.0 | 0.00 | 0.13 | 0.10 | 1010.5 | |
| 20260507202848 | 0 | 221 | 1.0 | 5.0 | 0.00 | 0.13 | 0.10 | 1010.5 | |
| 20260507202649 | 0 | 80 | 1.0 | 5.0 | 0.00 | 0.13 | 0.10 | 1010.4 | |
| 20260507202449 | 0 | 155 | 1.0 | 5.0 | 0.00 | 0.13 | 0.10 | 1010.5 | |
| 20260507202047 | 0 | 169 | 2.0 | 4.0 | 0.00 | 0.13 | 0.10 | 1010.7 | |
| 20260507201646 | 0 | 151 | 2.0 | 3.0 | 0.00 | 0.13 | 0.10 | 1010.6 | |
| 20260507201444 | 0 | 88 | 2.0 | 3.0 | 0.00 | 0.13 | 0.10 | 1010.6 | |
| 20260507201243 | 0 | 332 | 2.0 | 5.0 | 0.00 | 0.13 | 0.10 | 1010.8 | |
| 20260507201044 | 0 | 19 | 1.0 | 5.0 | 0.00 | 0.13 | 0.10 | 1010.7 | |
| 20260507200841 | 0 | 126 | 1.0 | 5.0 | 0.00 | 0.13 | 0.10 | 1010.7 | |
| 20260507200642 | 0 | 45 | 1.0 | 5.0 | 0.00 | 0.13 | 0.10 | 1010.7 | |
| 20260507200439 | 0 | 35 | 1.0 | 5.0 | 0.00 | 0.13 | 0.10 | 1010.7 | |
| 20260507200238 | 0 | 11 | 1.0 | 4.0 | 0.00 | 0.13 | 0.10 | 1010.6 | |
| 20260507200038 | 0 | 9 | 1.0 | 4.0 | 0.00 | 0.13 | 0.10 | 1010.6 | |
| 20260507195839 | 0 | 9 | 1.0 | 4.0 | 0.00 | 0.13 | 0.10 | 1010.6 | |
| 20260507195640 | 0 | 350 | 1.0 | 3.0 | 0.00 | 0.13 | 0.10 | 1010.5 | |
| 20260507195439 | 0 | 125 | 1.0 | 3.0 | 0.00 | 0.13 | 0.10 | 1010.6 | |
| 20260507195238 | 0 | 79 | 1.0 | 3.0 | 0.00 | 0.13 | 0.10 | 1010.6 | |
| 20260507195038 | 0 | 79 | 1.0 | 3.0 | 0.00 | 0.13 | 0.10 | 1010.6 | |
| 20260507194841 | 0 | 116 | 1.0 | 4.0 | 0.00 | 0.13 | 0.10 | 1010.5 | |
| 20260507194639 | 0 | 107 | 1.0 | 4.0 | 0.00 | 0.13 | 0.10 | 1010.5 | |
| 20260507194437 | 0 | 115 | 1.0 | 4.0 | 0.00 | 0.13 | 0.10 | 1010.6 | |
| 20260507194237 | 0 | 115 | 1.0 | 5.0 | 0.00 | 0.13 | 0.10 | 1010.5 | |
| 20260507194037 | 0 | 115 | 2.0 | 6.0 | 0.00 | 0.13 | 0.10 | 1010.5 | |
| 20260507193838 | 0 | 54 | 2.0 | 6.0 | 0.00 | 0.13 | 0.10 | 1010.5 | |
| 20260507193637 | 0 | 132 | 2.0 | 6.0 | 0.00 | 0.13 | 0.10 | 1010.5 | |
| 20260507193437 | 0 | 5 | 2.0 | 6.0 | 0.00 | 0.13 | 0.10 | 1010.6 | |
| 20260507193236 | 0 | 250 | 1.0 | 6.0 | 0.00 | 0.13 | 0.10 | 1010.6 | |
| 20260507192839 | 0 | 292 | 1.0 | 3.0 | 0.00 | 0.13 | 0.10 | 1010.6 | |
| 20260507192636 | 0 | 327 | 1.0 | 3.0 | 0.00 | 0.13 | 0.10 | 1010.5 | |
| 20260507192437 | 0 | 93 | 1.0 | 3.0 | 0.00 | 0.13 | 0.10 | 1010.6 | |
| 20260507192235 | 0 | 93 | 1.0 | 3.0 | 0.00 | 0.13 | 0.10 | 1010.7 | |
| 20260507192034 | 0 | 187 | 1.0 | 3.0 | 0.00 | 0.13 | 0.10 | 1010.7 | |
| 20260507191835 | 0 | 167 | 0.0 | 3.0 | 0.00 | 0.13 | 0.10 | 1010.7 | |
| 20260507191435 | 0 | 175 | 1.0 | 3.0 | 0.00 | 0.13 | 0.10 | 1010.9 | |
| 20260507191235 | 0 | 263 | 0.0 | 3.0 | 0.00 | 0.13 | 0.10 | 1010.9 | |
| 20260507191030 | 0 | 313 | 0.0 | 3.0 | 0.00 | 0.13 | 0.10 | 1010.8 | |
| 20260507190831 | 0 | 313 | 1.0 | 3.0 | 0.00 | 0.13 | 0.10 | 1010.8 | |
| 20260507190432 | 0 | 256 | 1.0 | 3.0 | 0.00 | 0.13 | 0.10 | 1010.7 | |
| 20260507190230 | 0 | 245 | 1.0 | 3.0 | 0.00 | 0.13 | 0.10 | 1010.7 | |
| 20260507190030 | 0 | 245 | 1.0 | 3.0 | 0.00 | 0.13 | 0.10 | 1010.6 | |
| 20260507185630 | 0 | 120 | 0.0 | 3.0 | 0.00 | 0.13 | 0.10 | 1010.6 | |
| 20260507185426 | 0 | 5 | 0.0 | 3.0 | 0.00 | 0.13 | 0.10 | 1010.7 | |
| 20260507185226 | 0 | 5 | 1.0 | 3.0 | 0.00 | 0.13 | 0.10 | 1010.8 | |
| 20260507184827 | 0 | 161 | 1.0 | 4.0 | 0.00 | 0.13 | 0.10 | 1010.7 | |
| 20260507184626 | 0 | 161 | 1.0 | 4.0 | 0.00 | 0.13 | 0.10 | 1010.5 | |
| 20260507184428 | 0 | 0 | 0.0 | 4.0 | 0.00 | 0.13 | 0.10 | 1010.5 | |
| 20260507184226 | 0 | 355 | 0.0 | 4.0 | 0.00 | 0.13 | 0.10 | 1010.5 | |
| 20260507184027 | 0 | 351 | 1.0 | 4.0 | 0.00 | 0.13 | 0.10 | 1010.4 | |
| 20260507183826 | 0 | 350 | 1.0 | 4.0 | 0.00 | 0.13 | 0.10 | 1010.5 | |
| 20260507183624 | 0 | 350 | 1.0 | 4.0 | 0.00 | 0.13 | 0.10 | 1010.5 | |
| 20260507183424 | 0 | 350 | 1.0 | 4.0 | 0.00 | 0.13 | 0.10 | 1010.5 | |
| 20260507183224 | 0 | 350 | 1.0 | 4.0 | 0.00 | 0.13 | 0.10 | 1010.5 | |
| 20260507183025 | 0 | 350 | 1.0 | 4.0 | 0.00 | 0.13 | 0.10 | 1010.6 | |
| 20260507182825 | 0 | 170 | 0.0 | 2.0 | 0.00 | 0.13 | 0.10 | 1010.7 | |
| 20260507182626 | 0 | 167 | 1.0 | 3.0 | 0.00 | 0.13 | 0.10 | 1010.7 | |
| 20260507182423 | 0 | 164 | 1.0 | 3.0 | 0.00 | 0.13 | 0.10 | 1010.7 | |
| 20260507182223 | 0 | 164 | 1.0 | 3.0 | 0.00 | 0.13 | 0.10 | 1010.8 | |
| 20260507182023 | 0 | 165 | 1.0 | 3.0 | 0.00 | 0.13 | 0.10 | 1010.9 | |
| 20260507181821 | 0 | 165 | 1.0 | 3.0 | 0.00 | 0.13 | 0.10 | 1010.9 | |
| 20260507181621 | 0 | 164 | 1.0 | 3.0 | 0.00 | 0.13 | 0.10 | 1010.9 | |
| 20260507181420 | 0 | 302 | 1.0 | 3.0 | 0.00 | 0.13 | 0.10 | 1010.8 | |
| 20260507181220 | 0 | 301 | 1.0 | 3.0 | 0.00 | 0.13 | 0.10 | 1010.7 | |
| 20260507180615 | 0 | 232 | 1.0 | 4.0 | 0.00 | 0.13 | 0.10 | 1010.4 | |
| 20260507180415 | 0 | 338 | 1.0 | 6.0 | 0.00 | 0.13 | 0.10 | 1010.5 | |
| 20260507180213 | 0 | 25 | 1.0 | 6.0 | 0.00 | 0.13 | 0.10 | 1010.5 | |
| 20260507180009 | 0 | 25 | 2.0 | 6.0 | 0.00 | 0.13 | 0.10 | 1010.8 | |
| 20260507175809 | 0 | 25 | 1.0 | 6.0 | 0.00 | 0.13 | 0.10 | 1010.9 | |
| 20260507175208 | 0 | 267 | 1.0 | 4.0 | 0.00 | 0.13 | 0.10 | 1010.9 | |
| 20260507175008 | 0 | 32 | 1.0 | 7.0 | 0.00 | 0.13 | 0.10 | 1010.8 | |
| 20260507174807 | 0 | 11 | 1.0 | 7.0 | 0.00 | 0.13 | 0.10 | 1010.7 | |
| 20260507174603 | 0 | 11 | 1.0 | 7.0 | 0.00 | 0.13 | 0.10 | 1010.6 | |
| 20260507174402 | 0 | 11 | 1.0 | 7.0 | 0.00 | 0.13 | 0.10 | 1010.6 | |
| 20260507174202 | 0 | 36 | 1.0 | 7.0 | 0.00 | 0.13 | 0.10 | 1010.5 | |
| 20260507174004 | 0 | 342 | 1.0 | 6.0 | 0.00 | 0.13 | 0.10 | 1010.5 | |
| 20260507173801 | 0 | 143 | 1.0 | 6.0 | 0.00 | 0.13 | 0.10 | 1010.6 | |
| 20260507173559 | 0 | 144 | 1.0 | 6.0 | 0.00 | 0.13 | 0.10 | 1010.6 | |
| 20260507173355 | 0 | 143 | 1.0 | 6.0 | 0.00 | 0.13 | 0.10 | 1010.6 | |
| 20260507173154 | 0 | 140 | 2.0 | 6.0 | 0.00 | 0.13 | 0.10 | 1010.7 | |
| 20260507172952 | 0 | 208 | 1.0 | 4.0 | 0.00 | 0.13 | 0.10 | 1010.8 | |
| 20260507172752 | 0 | 74 | 1.0 | 5.0 | 0.00 | 0.13 | 0.10 | 1010.9 | |
| 20260507172552 | 0 | 9 | 1.0 | 5.0 | 0.00 | 0.13 | 0.10 | 1011.0 | |
| 20260507172353 | 0 | 9 | 1.0 | 5.0 | 0.00 | 0.13 | 0.10 | 1011.1 | |
| 20260507172153 | 0 | 9 | 1.0 | 5.0 | 0.00 | 0.13 | 0.10 | 1011.1 | |
| 20260507171750 | 0 | 324 | 1.0 | 4.0 | 0.00 | 0.13 | 0.10 | 1010.5 | |
| 20260507171551 | 0 | 132 | 2.0 | 7.0 | 0.00 | 0.13 | 0.10 | 1010.3 | |
| 20260507171347 | 0 | 305 | 2.0 | 7.0 | 0.00 | 0.13 | 0.10 | 1010.3 | |
| 20260507171146 | 0 | 109 | 2.0 | 7.0 | 0.00 | 0.13 | 0.10 | 1010.2 | |
| 20260507170944 | 0 | 343 | 2.0 | 7.0 | 0.00 | 0.13 | 0.10 | 1010.2 | |
| 20260507170742 | 0 | 261 | 2.0 | 7.0 | 0.00 | 0.13 | 0.10 | 1010.1 | |
| 20260507170544 | 0 | 126 | 2.0 | 7.0 | 0.00 | 0.13 | 0.10 | 1010.0 | |
| 20260507170340 | 0 | 22 | 2.0 | 7.0 | 0.00 | 0.13 | 0.10 | 1010.0 | |
| 20260507170141 | 0 | 26 | 2.0 | 9.0 | 0.00 | 0.13 | 0.10 | 1010.0 | |
| 20260507165943 | 0 | 195 | 2.0 | 9.0 | 0.00 | 0.13 | 0.10 | 1010.0 | |
| 20260507165740 | 0 | 310 | 2.0 | 9.0 | 0.00 | 0.13 | 0.10 | 1009.8 | |
| 20260507165540 | 0 | 247 | 3.0 | 9.0 | 0.00 | 0.13 | 0.10 | 1009.8 | |
| 20260507165341 | 0 | 274 | 3.0 | 9.0 | 0.00 | 0.13 | 0.10 | 1010.0 | |
| 20260507164939 | 0 | 238 | 3.0 | 7.0 | 0.00 | 0.13 | 0.10 | 1009.8 | |
| 20260507164740 | 0 | 311 | 2.0 | 7.0 | 0.00 | 0.13 | 0.10 | 1009.6 | |
| 20260507164539 | 0 | 339 | 2.0 | 7.0 | 0.00 | 0.13 | 0.10 | 1009.4 | |
| 20260507164339 | 0 | 106 | 1.0 | 7.0 | 0.00 | 0.13 | 0.10 | 1009.2 | |
| 20260507163940 | 0 | 24 | 0.0 | 3.0 | 0.00 | 0.13 | 0.10 | 1009.4 | |
| 20260507163736 | 0 | 9 | 0.0 | 1.0 | 0.00 | 0.13 | 0.10 | 1009.6 | |
| 20260507163537 | 0 | 9 | 0.0 | 1.0 | 0.00 | 0.13 | 0.10 | 1009.7 | |
| 20260507163337 | 0 | 9 | 0.0 | 2.0 | 0.00 | 0.13 | 0.10 | 1009.7 | |
| 20260507163136 | 0 | 9 | 0.0 | 2.0 | 0.00 | 0.13 | 0.10 | 1009.7 | |
| 20260507162933 | 0 | 9 | 0.0 | 2.0 | 0.00 | 0.13 | 0.10 | 1009.6 | |
| 20260507162731 | 0 | 9 | 0.0 | 2.0 | 0.00 | 0.13 | 0.10 | 1009.5 | |
| 20260507162530 | 0 | 9 | 0.0 | 2.0 | 0.00 | 0.13 | 0.10 | 1009.6 | |
| 20260507162330 | 0 | 9 | 0.0 | 2.0 | 0.00 | 0.13 | 0.10 | 1009.6 | |
| 20260507162130 | 0 | 103 | 0.0 | 0.0 | 0.00 | 0.13 | 0.10 | 1009.6 | |
| 20260507161931 | 0 | 103 | 0.0 | 0.0 | 0.00 | 0.13 | 0.10 | 1009.6 | |
| 20260507161728 | 0 | 103 | 0.0 | 0.0 | 0.00 | 0.13 | 0.10 | 1009.7 | |
| 20260507161527 | 0 | 103 | 0.0 | 0.0 | 0.00 | 0.13 | 0.10 | 1010.0 | |
| 20260507161324 | 0 | 103 | 0.0 | 1.0 | 0.00 | 0.13 | 0.10 | 1010.1 | |
| 20260507161123 | 0 | 103 | 0.0 | 1.0 | 0.00 | 0.13 | 0.10 | 1010.1 | |
| 20260507160518 | 0 | 103 | 0.0 | 1.0 | 0.00 | 0.13 | 0.10 | 1010.4 | |
| 20260507160318 | 0 | 104 | 0.0 | 1.0 | 0.00 | 0.13 | 0.10 | 1010.7 | |
| 20260507155917 | 0 | 103 | 0.0 | 1.0 | 0.00 | 0.13 | 0.10 | 1010.9 | |
| 20260507155113 | 0 | 57 | 0.0 | 2.0 | 0.00 | 0.13 | 0.10 | 1010.7 | |
| 20260507154911 | 0 | 56 | 0.0 | 2.0 | 0.00 | 0.13 | 0.10 | 1010.7 | |
| 20260507154711 | 0 | 56 | 0.0 | 2.0 | 0.00 | 0.13 | 0.10 | 1010.6 | |
| 20260507154510 | 0 | 57 | 0.0 | 2.0 | 0.00 | 0.13 | 0.10 | 1010.6 | |
| 20260507154309 | 0 | 56 | 0.0 | 2.0 | 0.00 | 0.13 | 0.10 | 1010.7 | |
| 20260507154107 | 0 | 57 | 0.0 | 2.0 | 0.00 | 0.13 | 0.10 | 1010.9 | |
| 20260507153904 | 0 | 0 | 0.0 | 0.0 | 0.00 | 0.13 | 0.10 | 1010.8 | |
| 20260507153504 | 0 | 0 | 0.0 | 0.0 | 0.00 | 0.13 | 0.10 | 1010.8 | |
| 20260507153300 | 0 | 0 | 0.0 | 0.0 | 0.00 | 0.13 | 0.10 | 1010.8 | |
| 20260507153100 | 0 | 0 | 0.0 | 0.0 | 0.00 | 0.13 | 0.10 | 1010.6 | |
| 20260507152903 | 0 | 0 | 0.0 | 0.0 | 0.00 | 0.13 | 0.10 | 1010.4 | |
| 20260507152702 | 0 | 0 | 0.0 | 0.0 | 0.00 | 0.13 | 0.10 | 1010.3 | |
| 20260507152501 | 0 | 0 | 0.0 | 0.0 | 0.00 | 0.13 | 0.10 | 1010.2 | |
| 20260507152305 | 0 | 0 | 0.0 | 0.0 | 0.00 | 0.13 | 0.10 | 1010.2 | |
| 20260507152100 | 0 | 0 | 0.0 | 0.0 | 0.00 | 0.13 | 0.10 | 1010.3 | |
| 20260507151859 | 0 | 0 | 0.0 | 0.0 | 0.00 | 0.13 | 0.10 | 1010.2 | |
| 20260507151456 | 0 | 0 | 0.0 | 0.0 | 0.00 | 0.13 | 0.10 | 1010.3 | |
| 20260507151253 | 0 | 0 | 0.0 | 0.0 | 0.00 | 0.13 | 0.10 | 1010.0 | |
| 20260507151050 | 0 | 0 | 0.0 | 1.0 | 0.00 | 0.13 | 0.10 | 1010.1 | |
| 20260507150849 | 0 | 0 | 0.0 | 2.0 | 0.00 | 0.13 | 0.10 | 1010.3 | |
| 20260507150446 | 0 | 0 | 0.0 | 4.0 | 0.00 | 0.13 | 0.10 | 1010.3 | |
| 20260507145844 | 0 | 343 | 0.0 | 4.0 | 0.00 | 0.13 | 0.10 | 1010.5 | |
| 20260507145644 | 0 | 76 | 0.0 | 1.0 | 0.00 | 0.13 | 0.10 | 1010.6 | |
| 20260507145242 | 0 | 76 | 0.0 | 0.0 | 0.00 | 0.13 | 0.10 | 1010.5 | |
| 20260507145040 | 0 | 76 | 0.0 | 0.0 | 0.00 | 0.13 | 0.10 | 1010.6 | |
| 20260507144840 | 0 | 76 | 0.0 | 0.0 | 0.00 | 0.13 | 0.10 | 1010.5 | |
| 20260507144641 | 0 | 76 | 0.0 | 0.0 | 0.00 | 0.13 | 0.10 | 1010.3 | |
| 20260507144440 | 0 | 76 | 0.0 | 0.0 | 0.00 | 0.13 | 0.10 | 1010.3 | |
| 20260507144240 | 0 | 76 | 0.0 | 0.0 | 0.00 | 0.13 | 0.10 | 1010.3 | |
| 20260507144039 | 0 | 76 | 0.0 | 0.0 | 0.00 | 0.13 | 0.10 | 1010.2 | |
| 20260507143839 | 0 | 76 | 0.0 | 0.0 | 0.00 | 0.13 | 0.10 | 1010.2 | |
| 20260507143638 | 0 | 76 | 0.0 | 0.0 | 0.00 | 0.13 | 0.10 | 1010.1 | |
| 20260507143438 | 0 | 76 | 0.0 | 0.0 | 0.00 | 0.13 | 0.10 | 1010.1 | |
| 20260507143239 | 0 | 76 | 0.0 | 1.0 | 0.00 | 0.13 | 0.10 | 1010.0 | |
| 20260507143036 | 0 | 76 | 0.0 | 1.0 | 0.00 | 0.13 | 0.10 | 1010.0 | |
| 20260507142836 | 0 | 76 | 0.0 | 1.0 | 0.00 | 0.13 | 0.10 | 1010.0 | |
| 20260507142637 | 0 | 76 | 0.0 | 1.0 | 0.00 | 0.13 | 0.10 | 1010.1 | |
| 20260507142234 | 0 | 76 | 0.0 | 1.0 | 0.00 | 0.13 | 0.10 | 1010.0 | |
| 20260507141630 | 0 | 76 | 0.0 | 1.0 | 0.00 | 0.13 | 0.10 | 1010.0 | |
| 20260507141430 | 0 | 76 | 0.0 | 2.0 | 0.00 | 0.13 | 0.10 | 1010.0 | |
| 20260507140829 | 0 | 76 | 0.0 | 3.0 | 0.00 | 0.13 | 0.10 | 1010.2 | |
| 20260507140630 | 0 | 76 | 0.0 | 3.0 | 0.00 | 0.13 | 0.10 | 1010.3 | |
| 20260507140426 | 0 | 76 | 0.0 | 3.0 | 0.00 | 0.13 | 0.10 | 1010.3 | |
| 20260507135820 | 0 | 77 | 0.0 | 1.0 | 0.00 | 0.13 | 0.10 | 1010.3 | |
| 20260507135619 | 0 | 77 | 0.0 | 1.0 | 0.00 | 0.13 | 0.10 | 1010.3 | |
| 20260507135216 | 0 | 77 | 0.0 | 1.0 | 0.00 | 0.13 | 0.10 | 1010.4 | |
| 20260507134814 | 0 | 77 | 0.0 | 1.0 | 0.00 | 0.13 | 0.10 | 1010.4 | |
| 20260507134409 | 0 | 77 | 0.0 | 1.0 | 0.00 | 0.13 | 0.10 | 1010.5 | |
| 20260507134008 | 0 | 77 | 0.0 | 1.0 | 0.00 | 0.13 | 0.10 | 1010.6 | |
| 20260507133808 | 0 | 77 | 0.0 | 1.0 | 0.00 | 0.13 | 0.10 | 1010.6 | |
| 20260507133609 | 0 | 77 | 0.0 | 2.0 | 0.00 | 0.13 | 0.10 | 1010.7 | |
| 20260507133405 | 0 | 77 | 0.0 | 2.0 | 0.00 | 0.13 | 0.10 | 1010.8 | |
| 20260507133202 | 0 | 77 | 0.0 | 2.0 | 0.00 | 0.13 | 0.10 | 1011.0 | |
| 20260507133003 | 0 | 77 | 0.0 | 2.0 | 0.00 | 0.13 | 0.10 | 1011.1 | |
| 20260507132802 | 0 | 77 | 0.0 | 2.0 | 0.00 | 0.13 | 0.10 | 1011.1 | |
| 20260507132600 | 0 | 77 | 0.0 | 0.0 | 0.00 | 0.13 | 0.10 | 1011.1 | |
| 20260507132400 | 0 | 77 | 0.0 | 0.0 | 0.00 | 0.13 | 0.10 | 1011.2 | |
| 20260507132200 | 0 | 77 | 0.0 | 0.0 | 0.00 | 0.13 | 0.10 | 1011.2 | |
| 20260507132001 | 0 | 77 | 0.0 | 0.0 | 0.00 | 0.13 | 0.10 | 1011.2 | |
| 20260507131759 | 0 | 77 | 0.0 | 1.0 | 0.00 | 0.13 | 0.10 | 1011.2 | |
| 20260507131558 | 0 | 77 | 0.0 | 1.0 | 0.00 | 0.13 | 0.10 | 1011.2 | |
| 20260507131357 | 0 | 77 | 0.0 | 1.0 | 0.00 | 0.13 | 0.10 | 1011.2 | |
| 20260507131156 | 0 | 77 | 0.0 | 1.0 | 0.00 | 0.13 | 0.10 | 1011.2 | |
| 20260507130954 | 0 | 77 | 0.0 | 0.0 | 0.00 | 0.13 | 0.10 | 1011.2 | |
| 20260507130753 | 0 | 78 | 0.0 | 0.0 | 0.00 | 0.13 | 0.10 | 1011.1 | |
| 20260507130551 | 0 | 80 | 0.0 | 0.0 | 0.00 | 0.13 | 0.10 | 1011.1 | |
| 20260507130348 | 0 | 80 | 0.0 | 0.0 | 0.00 | 0.13 | 0.10 | 1011.1 | |
| 20260507130149 | 0 | 80 | 0.0 | 0.0 | 0.00 | 0.13 | 0.10 | 1011.0 | |
| 20260507125946 | 0 | 80 | 0.0 | 0.0 | 0.00 | 0.13 | 0.10 | 1010.9 | |
| 20260507125746 | 0 | 80 | 0.0 | 0.0 | 0.00 | 0.13 | 0.10 | 1010.8 | |
| 20260507125543 | 0 | 80 | 0.0 | 1.0 | 0.00 | 0.13 | 0.10 | 1010.9 | |
| 20260507125341 | 0 | 80 | 0.0 | 1.0 | 0.00 | 0.13 | 0.10 | 1010.9 | |
| 20260507125139 | 0 | 80 | 0.0 | 1.0 | 0.00 | 0.13 | 0.10 | 1010.8 | |
| 20260507124939 | 0 | 80 | 0.0 | 1.0 | 0.00 | 0.13 | 0.10 | 1010.9 | |
| 20260507124739 | 0 | 80 | 0.0 | 1.0 | 0.00 | 0.13 | 0.10 | 1010.9 | |
| 20260507124538 | 0 | 80 | 0.0 | 1.0 | 0.00 | 0.13 | 0.10 | 1010.8 | |
| 20260507124338 | 0 | 80 | 0.0 | 1.0 | 0.00 | 0.13 | 0.10 | 1010.7 | |
| 20260507124138 | 0 | 80 | 0.0 | 1.0 | 0.00 | 0.13 | 0.10 | 1010.8 | |
| 20260507123933 | 0 | 80 | 0.0 | 1.0 | 0.00 | 0.13 | 0.10 | 1010.9 | |
| 20260507123735 | 0 | 80 | 0.0 | 1.0 | 0.00 | 0.13 | 0.10 | 1011.0 | |
| 20260507123534 | 0 | 80 | 0.0 | 0.0 | 0.00 | 0.13 | 0.10 | 1011.1 | |
| 20260507123333 | 0 | 80 | 0.0 | 1.0 | 0.00 | 0.13 | 0.10 | 1011.1 | |
| 20260507122532 | 0 | 80 | 0.0 | 1.0 | 0.00 | 0.13 | 0.10 | 1011.2 | |
| 20260507122333 | 0 | 80 | 0.0 | 1.0 | 0.00 | 0.13 | 0.10 | 1011.1 | |
| 20260507122130 | 0 | 80 | 0.0 | 1.0 | 0.00 | 0.13 | 0.10 | 1010.9 | |
| 20260507121931 | 0 | 80 | 0.0 | 2.0 | 0.00 | 0.13 | 0.10 | 1010.9 | |
| 20260507121728 | 0 | 80 | 0.0 | 2.0 | 0.00 | 0.13 | 0.10 | 1010.8 | |
| 20260507121527 | 0 | 80 | 0.0 | 2.0 | 0.00 | 0.13 | 0.10 | 1010.9 | |
| 20260507121325 | 0 | 80 | 0.0 | 2.0 | 0.00 | 0.13 | 0.10 | 1010.9 | |
| 20260507121127 | 0 | 81 | 0.0 | 2.0 | 0.00 | 0.13 | 0.10 | 1011.0 | |
| 20260507120726 | 0 | 81 | 0.0 | 0.0 | 0.00 | 0.13 | 0.10 | 1010.7 | |
| 20260507120322 | 0 | 81 | 0.0 | 0.0 | 0.00 | 0.13 | 0.10 | 1010.7 | |
| 20260507120120 | 0 | 81 | 0.0 | 0.0 | 0.00 | 0.13 | 0.10 | 1010.7 | |
| 20260507115919 | 65 | 81 | 0.0 | 0.0 | 0.00 | 0.13 | 0.10 | 95 | 1010.9 |
| 20260507115716 | 65 | 81 | 0.0 | 0.0 | 0.00 | 0.13 | 0.10 | 95 | 1010.8 |
| 20260507115516 | 65 | 81 | 0.0 | 0.0 | 0.00 | 0.13 | 0.10 | 95 | 1010.8 |
| 20260507115315 | 65 | 81 | 0.0 | 0.0 | 0.00 | 0.13 | 0.10 | 95 | 1010.8 |
| 20260507115113 | 65 | 81 | 0.0 | 0.0 | 0.00 | 0.13 | 0.10 | 95 | 1010.9 |
| 20260507114710 | 65 | 81 | 0.0 | 0.0 | 0.00 | 0.13 | 0.10 | 95 | 1011.0 |
| 20260507114509 | 65 | 81 | 0.0 | 0.0 | 0.00 | 0.13 | 0.10 | 95 | 1011.1 |
| 20260507114312 | 65 | 81 | 0.0 | 0.0 | 0.00 | 0.13 | 0.10 | 95 | 1011.0 |
| 20260507114109 | 65 | 81 | 0.0 | 0.0 | 0.00 | 0.13 | 0.10 | 95 | 1010.9 |
| 20260507113910 | 65 | 81 | 0.0 | 0.0 | 0.00 | 0.13 | 0.10 | 95 | 1010.8 |
| 20260507113707 | 65 | 81 | 0.0 | 0.0 | 0.00 | 0.13 | 0.10 | 95 | 1010.6 |
| 20260507113507 | 65 | 81 | 0.0 | 0.0 | 0.00 | 0.13 | 0.10 | 95 | 1010.6 |
| 20260507113304 | 65 | 81 | 0.0 | 0.0 | 0.00 | 0.13 | 0.10 | 95 | 1010.9 |
| 20260507113101 | 65 | 81 | 0.0 | 0.0 | 0.00 | 0.13 | 0.10 | 95 | 1011.1 |
| 20260507112900 | 65 | 81 | 0.0 | 0.0 | 0.00 | 0.13 | 0.10 | 95 | 1011.1 |
| 20260507112659 | 65 | 81 | 0.0 | 0.0 | 0.00 | 0.13 | 0.10 | 95 | 1011.2 |
| 20260507112459 | 65 | 81 | 0.0 | 0.0 | 0.00 | 0.13 | 0.10 | 95 | 1011.2 |
| 20260507112258 | 65 | 81 | 0.0 | 0.0 | 0.00 | 0.13 | 0.10 | 95 | 1011.2 |
| 20260507112059 | 65 | 81 | 0.0 | 1.0 | 0.00 | 0.13 | 0.10 | 95 | 1011.2 |
| 20260507111856 | 65 | 81 | 0.0 | 1.0 | 0.00 | 0.13 | 0.10 | 95 | 1011.2 |
| 20260507111455 | 65 | 81 | 0.0 | 1.0 | 0.00 | 0.13 | 0.10 | 95 | 1011.2 |
| 20260507111252 | 65 | 81 | 0.0 | 1.0 | 0.00 | 0.13 | 0.10 | 95 | 1011.1 |
| 20260507111050 | 65 | 81 | 0.0 | 1.0 | 0.00 | 0.13 | 0.10 | 95 | 1011.1 |
| 20260507110852 | 65 | 81 | 0.0 | 1.0 | 0.00 | 0.13 | 0.10 | 95 | 1011.1 |
| 20260507110650 | 65 | 81 | 0.0 | 0.0 | 0.00 | 0.13 | 0.10 | 95 | 1011.2 |
| 20260507110449 | 65 | 81 | 0.0 | 0.0 | 0.00 | 0.13 | 0.10 | 95 | 1011.2 |
| 20260507110249 | 65 | 81 | 0.0 | 0.0 | 0.00 | 0.13 | 0.10 | 95 | 1011.3 |
| 20260507110047 | 65 | 81 | 0.0 | 0.0 | 0.00 | 0.13 | 0.10 | 95 | 1011.2 |
| 20260507105845 | 65 | 81 | 0.0 | 0.0 | 0.00 | 0.13 | 0.10 | 95 | 1011.2 |
| 20260507105642 | 65 | 81 | 0.0 | 0.0 | 0.00 | 0.13 | 0.10 | 95 | 1011.2 |
| 20260507105443 | 65 | 81 | 0.0 | 1.0 | 0.01 | 0.13 | 0.10 | 95 | 1011.1 |
| 20260507105240 | 65 | 81 | 0.0 | 1.0 | 0.01 | 0.13 | 0.10 | 95 | 1011.1 |
| 20260507105041 | 65 | 81 | 0.0 | 1.0 | 0.01 | 0.13 | 0.10 | 95 | 1011.2 |
| 20260507104842 | 65 | 81 | 0.0 | 1.0 | 0.01 | 0.13 | 0.10 | 95 | 1011.1 |
| 20260507104441 | 65 | 81 | 0.0 | 0.0 | 0.01 | 0.13 | 0.10 | 95 | 1011.0 |
| 20260507104038 | 65 | 81 | 0.0 | 1.0 | 0.01 | 0.13 | 0.10 | 95 | 1011.0 |
| 20260507103837 | 65 | 81 | 0.0 | 1.0 | 0.01 | 0.13 | 0.10 | 95 | 1010.9 |
| 20260507103639 | 65 | 81 | 0.0 | 1.0 | 0.01 | 0.13 | 0.10 | 95 | 1010.8 |
| 20260507103237 | 65 | 81 | 0.0 | 1.0 | 0.01 | 0.13 | 0.10 | 95 | 1010.6 |
| 20260507102835 | 65 | 81 | 0.0 | 0.0 | 0.01 | 0.13 | 0.10 | 95 | 1010.6 |
| 20260507102635 | 65 | 81 | 0.0 | 0.0 | 0.01 | 0.13 | 0.10 | 95 | 1010.7 |
| 20260507102437 | 65 | 81 | 0.0 | 0.0 | 0.01 | 0.13 | 0.10 | 95 | 1010.7 |
| 20260507102237 | 65 | 81 | 0.0 | 0.0 | 0.01 | 0.13 | 0.10 | 95 | 1010.9 |
| 20260507102038 | 65 | 81 | 0.0 | 0.0 | 0.01 | 0.13 | 0.10 | 95 | 1010.9 |
| 20260507101836 | 65 | 81 | 0.0 | 0.0 | 0.01 | 0.13 | 0.10 | 95 | 1011.0 |
| 20260507101635 | 65 | 81 | 0.0 | 0.0 | 0.01 | 0.13 | 0.10 | 95 | 1011.0 |
| 20260507101434 | 65 | 81 | 0.0 | 0.0 | 0.01 | 0.13 | 0.10 | 95 | 1011.0 |
| 20260507101233 | 65 | 81 | 0.0 | 0.0 | 0.01 | 0.13 | 0.10 | 95 | 1011.0 |
| 20260507101030 | 65 | 81 | 0.0 | 0.0 | 0.01 | 0.13 | 0.10 | 95 | 1010.9 |
| 20260507100829 | 65 | 81 | 0.0 | 0.0 | 0.01 | 0.13 | 0.10 | 95 | 1010.7 |
| 20260507100627 | 65 | 81 | 0.0 | 1.0 | 0.01 | 0.13 | 0.10 | 95 | 1010.8 |
| 20260507100425 | 65 | 81 | 0.0 | 1.0 | 0.01 | 0.13 | 0.10 | 95 | 1010.7 |
| 20260507100223 | 65 | 81 | 0.0 | 1.0 | 0.01 | 0.13 | 0.10 | 95 | 1010.8 |
| 20260507100025 | 65 | 81 | 0.0 | 1.0 | 0.01 | 0.13 | 0.10 | 95 | 1010.7 |
| 20260507095823 | 65 | 81 | 0.0 | 1.0 | 0.01 | 0.13 | 0.10 | 95 | 1010.8 |
| 20260507095623 | 65 | 81 | 0.0 | 1.0 | 0.00 | 0.12 | 0.09 | 95 | 1010.8 |
| 20260507095022 | 65 | 81 | 0.0 | 1.0 | 0.00 | 0.12 | 0.09 | 95 | 1011.0 |
| 20260507094823 | 65 | 81 | 0.0 | 1.0 | 0.00 | 0.12 | 0.09 | 95 | 1011.0 |
| 20260507094623 | 65 | 81 | 0.0 | 1.0 | 0.00 | 0.12 | 0.09 | 95 | 1010.9 |
| 20260507094420 | 65 | 81 | 0.0 | 1.0 | 0.00 | 0.12 | 0.09 | 95 | 1010.9 |
| 20260507094218 | 65 | 81 | 0.0 | 1.0 | 0.00 | 0.12 | 0.09 | 95 | 1010.9 |
| 20260507094016 | 65 | 81 | 0.0 | 1.0 | 0.00 | 0.12 | 0.09 | 95 | 1011.0 |
| 20260507093817 | 65 | 81 | 0.0 | 1.0 | 0.00 | 0.12 | 0.09 | 95 | 1010.9 |
| 20260507093412 | 65 | 81 | 0.0 | 1.0 | 0.00 | 0.12 | 0.09 | 95 | 1010.9 |
| 20260507093211 | 65 | 81 | 0.0 | 1.0 | 0.00 | 0.12 | 0.09 | 94 | 1010.7 |
| 20260507093010 | 65 | 81 | 0.0 | 1.0 | 0.00 | 0.12 | 0.09 | 95 | 1010.8 |
| 20260507092805 | 65 | 81 | 0.0 | 1.0 | 0.00 | 0.12 | 0.09 | 95 | 1010.8 |
| 20260507092202 | 65 | 81 | 0.0 | 1.0 | 0.00 | 0.12 | 0.09 | 94 | 1010.7 |
| 20260507092002 | 65 | 81 | 0.0 | 1.0 | 0.00 | 0.12 | 0.09 | 94 | 1010.7 |
| 20260507091800 | 65 | 81 | 0.0 | 1.0 | 0.00 | 0.12 | 0.09 | 94 | 1010.8 |
| 20260507091558 | 65 | 81 | 0.0 | 1.0 | 0.00 | 0.12 | 0.09 | 94 | 1010.7 |
| 20260507091357 | 65 | 81 | 0.0 | 1.0 | 0.00 | 0.12 | 0.09 | 94 | 1010.7 |
| 20260507091155 | 65 | 80 | 0.0 | 1.0 | 0.00 | 0.12 | 0.09 | 94 | 1010.8 |
| 20260507090954 | 65 | 80 | 0.0 | 0.0 | 0.00 | 0.12 | 0.09 | 94 | 1010.9 |
| 20260507090755 | 65 | 81 | 0.0 | 0.0 | 0.00 | 0.12 | 0.09 | 94 | 1010.8 |
| 20260507090555 | 65 | 81 | 0.0 | 0.0 | 0.00 | 0.12 | 0.09 | 94 | 1010.8 |
| 20260507085952 | 65 | 81 | 0.0 | 1.0 | 0.00 | 0.12 | 0.09 | 94 | 1010.8 |
| 20260507085348 | 65 | 80 | 0.0 | 0.0 | 0.00 | 0.12 | 0.09 | 94 | 1011.0 |
| 20260507085146 | 65 | 80 | 0.0 | 0.0 | 0.00 | 0.12 | 0.09 | 94 | 1011.0 |
| 20260507084745 | 65 | 81 | 0.0 | 0.0 | 0.00 | 0.12 | 0.09 | 94 | 1011.1 |
| 20260507084545 | 65 | 80 | 0.0 | 0.0 | 0.00 | 0.12 | 0.09 | 94 | 1011.0 |
| 20260507084346 | 65 | 80 | 0.0 | 0.0 | 0.00 | 0.12 | 0.09 | 94 | 1011.1 |
| 20260507084145 | 65 | 80 | 0.0 | 1.0 | 0.00 | 0.12 | 0.09 | 94 | 1011.0 |
| 20260507083945 | 65 | 80 | 0.0 | 2.0 | 0.00 | 0.12 | 0.09 | 94 | 1011.1 |
| 20260507083743 | 65 | 80 | 0.0 | 2.0 | 0.00 | 0.12 | 0.09 | 94 | 1011.1 |
| 20260507083342 | 65 | 80 | 0.0 | 3.0 | 0.00 | 0.12 | 0.09 | 94 | 1011.0 |
| 20260507083143 | 65 | 81 | 0.0 | 3.0 | 0.00 | 0.12 | 0.09 | 94 | 1011.1 |
| 20260507082942 | 65 | 81 | 0.0 | 3.0 | 0.00 | 0.12 | 0.09 | 94 | 1011.1 |
| 20260507082741 | 65 | 81 | 0.0 | 3.0 | 0.00 | 0.12 | 0.09 | 94 | 1011.0 |
| 20260507082541 | 65 | 47 | 0.0 | 1.0 | 0.00 | 0.12 | 0.09 | 94 | 1011.0 |
| 20260507082340 | 65 | 45 | 0.0 | 1.0 | 0.00 | 0.12 | 0.09 | 94 | 1011.1 |
| 20260507082139 | 65 | 44 | 0.0 | 2.0 | 0.00 | 0.12 | 0.09 | 94 | 1011.3 |
| 20260507081937 | 65 | 44 | 0.0 | 2.0 | 0.00 | 0.12 | 0.09 | 94 | 1011.3 |
| 20260507081738 | 65 | 44 | 0.0 | 2.0 | 0.00 | 0.12 | 0.09 | 94 | 1011.4 |
| 20260507081539 | 65 | 45 | 0.0 | 2.0 | 0.00 | 0.12 | 0.09 | 94 | 1011.4 |
| 20260507081340 | 65 | 45 | 0.0 | 2.0 | 0.00 | 0.12 | 0.09 | 94 | 1011.5 |
| 20260507081137 | 65 | 45 | 0.0 | 0.0 | 0.00 | 0.12 | 0.09 | 94 | 1011.5 |
| 20260507080940 | 65 | 45 | 0.0 | 0.0 | 0.00 | 0.12 | 0.09 | 94 | 1011.4 |
| 20260507080737 | 65 | 44 | 0.0 | 0.0 | 0.00 | 0.12 | 0.09 | 94 | 1011.4 |
| 20260507080339 | 65 | 45 | 0.0 | 0.0 | 0.00 | 0.12 | 0.09 | 94 | 1011.4 |
| 20260507080138 | 65 | 44 | 0.0 | 0.0 | 0.00 | 0.12 | 0.09 | 94 | 1011.4 |
| 20260507075937 | 65 | 44 | 0.0 | 0.0 | 0.00 | 0.12 | 0.09 | 94 | 1011.4 |
| 20260507075539 | 65 | 44 | 0.0 | 0.0 | 0.00 | 0.12 | 0.09 | 94 | 1011.4 |
| 20260507075339 | 65 | 44 | 0.0 | 0.0 | 0.00 | 0.12 | 0.09 | 94 | 1011.3 |
| 20260507075139 | 65 | 44 | 0.0 | 0.0 | 0.00 | 0.12 | 0.09 | 94 | 1011.2 |
| 20260507074938 | 65 | 45 | 0.0 | 0.0 | 0.00 | 0.12 | 0.09 | 94 | 1011.1 |
| 20260507074737 | 65 | 44 | 0.0 | 0.0 | 0.00 | 0.12 | 0.09 | 94 | 1011.1 |
| 20260507074538 | 65 | 45 | 0.0 | 0.0 | 0.00 | 0.12 | 0.09 | 94 | 1011.2 |
| 20260507074337 | 65 | 44 | 0.0 | 0.0 | 0.00 | 0.12 | 0.09 | 94 | 1011.1 |
| 20260507074138 | 65 | 44 | 0.0 | 0.0 | 0.00 | 0.12 | 0.09 | 94 | 1011.2 |
| 20260507073937 | 65 | 44 | 0.0 | 0.0 | 0.00 | 0.12 | 0.09 | 94 | 1011.3 |
| 20260507073539 | 65 | 44 | 0.0 | 0.0 | 0.00 | 0.12 | 0.09 | 94 | 1011.4 |
| 20260507073338 | 65 | 45 | 0.0 | 0.0 | 0.00 | 0.12 | 0.09 | 94 | 1011.4 |
| 20260507073138 | 65 | 44 | 0.0 | 0.0 | 0.00 | 0.12 | 0.09 | 94 | 1011.4 |
| 20260507072937 | 65 | 44 | 0.0 | 0.0 | 0.00 | 0.12 | 0.09 | 94 | 1011.4 |
| 20260507072737 | 65 | 45 | 0.0 | 0.0 | 0.00 | 0.12 | 0.09 | 94 | 1011.4 |
| 20260507072536 | 65 | 44 | 0.0 | 0.0 | 0.00 | 0.12 | 0.09 | 94 | 1011.6 |
| 20260507072336 | 65 | 44 | 0.0 | 0.0 | 0.00 | 0.12 | 0.09 | 94 | 1011.6 |
| 20260507072138 | 65 | 44 | 0.0 | 0.0 | 0.00 | 0.12 | 0.09 | 94 | 1011.7 |
| 20260507071937 | 65 | 45 | 0.0 | 0.0 | 0.00 | 0.12 | 0.09 | 94 | 1011.6 |
| 20260507071736 | 65 | 44 | 0.0 | 0.0 | 0.00 | 0.12 | 0.09 | 94 | 1011.6 |
| 20260507071536 | 65 | 45 | 0.0 | 0.0 | 0.00 | 0.12 | 0.09 | 94 | 1011.6 |
| 20260507071335 | 65 | 44 | 0.0 | 0.0 | 0.00 | 0.12 | 0.09 | 94 | 1011.8 |
| 20260507071136 | 65 | 44 | 0.0 | 0.0 | 0.00 | 0.12 | 0.09 | 94 | 1011.9 |
| 20260507070936 | 65 | 44 | 0.0 | 0.0 | 0.00 | 0.12 | 0.09 | 94 | 1011.8 |
| 20260507070537 | 65 | 44 | 0.0 | 0.0 | 0.00 | 0.12 | 0.09 | 94 | 1011.9 |
| 20260507070136 | 66 | 44 | 0.0 | 0.0 | 0.00 | 0.12 | 0.09 | 94 | 1011.9 |
| 20260507065936 | 65 | 44 | 0.0 | 0.0 | 0.00 | 0.12 | 0.09 | 94 | 1011.7 |
| 20260507065735 | 66 | 44 | 0.0 | 0.0 | 0.00 | 0.12 | 0.09 | 94 | 1011.8 |
| 20260507065335 | 66 | 44 | 0.0 | 0.0 | 0.00 | 0.12 | 0.09 | 94 | 1012.0 |
| 20260507064937 | 66 | 44 | 0.0 | 0.0 | 0.00 | 0.12 | 0.09 | 94 | 1012.0 |
| 20260507064536 | 66 | 44 | 0.0 | 0.0 | 0.00 | 0.12 | 0.09 | 94 | 1011.9 |
| 20260507064336 | 66 | 44 | 0.0 | 0.0 | 0.00 | 0.12 | 0.09 | 94 | 1011.7 |
| 20260507064135 | 66 | 44 | 0.0 | 0.0 | 0.00 | 0.12 | 0.09 | 94 | 1011.8 |
| 20260507063737 | 66 | 44 | 0.0 | 0.0 | 0.00 | 0.12 | 0.09 | 94 | 1012.3 |
| 20260507063538 | 66 | 44 | 0.0 | 0.0 | 0.00 | 0.12 | 0.09 | 94 | 1012.4 |
| 20260507063336 | 66 | 45 | 0.0 | 0.0 | 0.00 | 0.12 | 0.09 | 94 | 1012.5 |
| 20260507063136 | 66 | 44 | 0.0 | 0.0 | 0.00 | 0.12 | 0.09 | 94 | 1012.6 |
| 20260507062937 | 66 | 45 | 0.0 | 0.0 | 0.00 | 0.12 | 0.09 | 94 | 1012.8 |
| 20260507062735 | 66 | 44 | 0.0 | 0.0 | 0.00 | 0.12 | 0.09 | 94 | 1012.8 |
| 20260507062337 | 66 | 44 | 0.0 | 0.0 | 0.00 | 0.12 | 0.09 | 94 | 1012.8 |
| 20260507061935 | 66 | 44 | 0.0 | 0.0 | 0.00 | 0.12 | 0.09 | 94 | 1012.8 |
| 20260507061736 | 66 | 45 | 0.0 | 0.0 | 0.00 | 0.12 | 0.09 | 94 | 1012.8 |
| 20260507061337 | 66 | 44 | 0.0 | 0.0 | 0.00 | 0.12 | 0.09 | 94 | 1012.7 |
| 20260507061136 | 66 | 44 | 0.0 | 0.0 | 0.00 | 0.12 | 0.09 | 94 | 1012.7 |
| 20260507060937 | 66 | 44 | 0.0 | 0.0 | 0.00 | 0.12 | 0.09 | 94 | 1012.6 |
| 20260507060736 | 66 | 44 | 0.0 | 0.0 | 0.00 | 0.12 | 0.09 | 94 | 1012.5 |
| 20260507060535 | 66 | 45 | 0.0 | 0.0 | 0.00 | 0.12 | 0.09 | 94 | 1012.4 |
| 20260507060135 | 66 | 45 | 0.0 | 0.0 | 0.00 | 0.12 | 0.09 | 94 | 1012.0 |
| 20260507055737 | 66 | 44 | 0.0 | 0.0 | 0.00 | 0.12 | 0.09 | 94 | 1012.3 |
| 20260507055536 | 66 | 44 | 0.0 | 0.0 | 0.00 | 0.12 | 0.09 | 94 | 1012.4 |
| 20260507055337 | 66 | 44 | 0.0 | 0.0 | 0.00 | 0.12 | 0.09 | 94 | 1012.5 |
| 20260507055137 | 66 | 45 | 0.0 | 0.0 | 0.01 | 0.12 | 0.09 | 94 | 1012.5 |
| 20260507054935 | 66 | 44 | 0.0 | 0.0 | 0.01 | 0.12 | 0.09 | 94 | 1012.5 |
| 20260507054736 | 66 | 44 | 0.0 | 0.0 | 0.01 | 0.12 | 0.09 | 94 | 1012.5 |
| 20260507054536 | 66 | 44 | 0.0 | 0.0 | 0.01 | 0.12 | 0.09 | 94 | 1012.6 |
| 20260507054336 | 66 | 45 | 0.0 | 0.0 | 0.02 | 0.12 | 0.09 | 94 | 1012.7 |
| 20260507054136 | 66 | 45 | 0.0 | 0.0 | 0.02 | 0.12 | 0.09 | 94 | 1012.6 |
| 20260507053935 | 66 | 44 | 0.0 | 0.0 | 0.03 | 0.12 | 0.09 | 94 | 1012.5 |
| 20260507053735 | 66 | 45 | 0.0 | 0.0 | 0.03 | 0.12 | 0.09 | 94 | 1012.6 |
| 20260507053336 | 66 | 44 | 0.0 | 0.0 | 0.03 | 0.12 | 0.09 | 94 | 1012.6 |
| 20260507053135 | 66 | 45 | 0.0 | 0.0 | 0.03 | 0.12 | 0.09 | 94 | 1012.5 |
| 20260507052935 | 66 | 45 | 0.0 | 0.0 | 0.04 | 0.12 | 0.09 | 94 | 1012.5 |
| 20260507052735 | 66 | 44 | 0.0 | 0.0 | 0.04 | 0.12 | 0.09 | 94 | 1012.4 |
| 20260507052536 | 66 | 44 | 0.0 | 0.0 | 0.04 | 0.12 | 0.09 | 94 | 1012.4 |
| 20260507052336 | 66 | 44 | 0.0 | 1.0 | 0.04 | 0.12 | 0.09 | 94 | 1012.4 |
| 20260507052137 | 66 | 44 | 0.0 | 1.0 | 0.04 | 0.12 | 0.09 | 94 | 1012.4 |
| 20260507051535 | 66 | 45 | 0.0 | 2.0 | 0.07 | 0.12 | 0.09 | 94 | 1012.5 |
| 20260507051336 | 66 | 44 | 0.0 | 3.0 | 0.07 | 0.12 | 0.09 | 94 | 1012.6 |
| 20260507051136 | 66 | 44 | 1.0 | 3.0 | 0.07 | 0.12 | 0.09 | 94 | 1012.6 |
| 20260507050936 | 66 | 44 | 1.0 | 3.0 | 0.07 | 0.12 | 0.09 | 94 | 1012.7 |
| 20260507050735 | 66 | 44 | 1.0 | 4.0 | 0.08 | 0.12 | 0.09 | 93 | 1013.1 |
| 20260507050536 | 66 | 44 | 1.0 | 4.0 | 0.08 | 0.12 | 0.09 | 93 | 1013.4 |
| 20260507050336 | 66 | 37 | 1.0 | 4.0 | 0.09 | 0.12 | 0.09 | 93 | 1013.5 |
| 20260507050136 | 66 | 309 | 0.0 | 4.0 | 0.09 | 0.12 | 0.09 | 93 | 1013.4 |
| 20260507045935 | 66 | 306 | 0.0 | 4.0 | 0.09 | 0.12 | 0.09 | 93 | 1012.7 |
| 20260507045735 | 66 | 51 | 0.0 | 0.0 | 0.09 | 0.12 | 0.09 | 93 | 1011.7 |
| 20260507045537 | 66 | 52 | 0.0 | 0.0 | 0.09 | 0.12 | 0.09 | 93 | 1012.0 |
| 20260507045336 | 66 | 5 | 0.0 | 0.0 | 0.09 | 0.12 | 0.09 | 93 | 1012.6 |
| 20260507045136 | 66 | 355 | 0.0 | 0.0 | 0.08 | 0.11 | 0.08 | 93 | 1013.0 |
| 20260507044934 | 66 | 355 | 0.0 | 0.0 | 0.08 | 0.11 | 0.08 | 93 | 1012.9 |
| 20260507044734 | 66 | 355 | 0.0 | 0.0 | 0.08 | 0.11 | 0.08 | 93 | 1012.7 |
| 20260507044532 | 66 | 355 | 0.0 | 0.0 | 0.08 | 0.11 | 0.08 | 93 | 1012.6 |
| 20260507044331 | 66 | 355 | 0.0 | 0.0 | 0.08 | 0.10 | 0.07 | 93 | 1012.5 |
| 20260507044131 | 66 | 355 | 0.0 | 1.0 | 0.08 | 0.10 | 0.07 | 93 | 1012.6 |
| 20260507043931 | 66 | 351 | 1.0 | 3.0 | 0.07 | 0.09 | 0.06 | 93 | 1012.7 |
| 20260507043730 | 66 | 351 | 1.0 | 4.0 | 0.07 | 0.09 | 0.06 | 93 | 1012.8 |
| 20260507043530 | 66 | 351 | 1.0 | 4.0 | 0.07 | 0.09 | 0.06 | 93 | 1012.8 |
| 20260507043332 | 66 | 348 | 1.0 | 5.0 | 0.07 | 0.09 | 0.06 | 93 | 1013.2 |
| 20260507042930 | 66 | 348 | 1.0 | 5.0 | 0.07 | 0.08 | 0.06 | 93 | 1012.6 |
| 20260507042730 | 67 | 325 | 1.0 | 5.0 | 0.07 | 0.08 | 0.05 | 92 | 1012.1 |
| 20260507042129 | 67 | 85 | 1.0 | 4.0 | 0.07 | 0.08 | 0.05 | 92 | 1013.0 |
| 20260507041926 | 67 | 70 | 1.0 | 4.0 | 0.06 | 0.07 | 0.05 | 92 | 1013.4 |
| 20260507041121 | 67 | 153 | 1.0 | 4.0 | 0.04 | 0.05 | 0.02 | 92 | 1014.2 |
| 20260507040721 | 67 | 333 | 1.0 | 4.0 | 0.03 | 0.04 | 0.01 | 93 | 1014.3 |
| 20260507040522 | 67 | 346 | 1.0 | 4.0 | 0.04 | 0.04 | 0.01 | 93 | 1014.4 |
| 20260507040322 | 67 | 59 | 1.0 | 4.0 | 0.03 | 0.03 | 0.01 | 93 | 1014.4 |
| 20260507035718 | 67 | 0 | 1.0 | 4.0 | 0.03 | 0.03 | 0.03 | 93 | 1014.4 |
| 20260507035519 | 67 | 26 | 0.0 | 3.0 | 0.03 | 0.03 | 0.03 | 92 | 1014.4 |
| 20260507035319 | 67 | 96 | 0.0 | 3.0 | 0.03 | 0.03 | 0.03 | 92 | 1014.2 |
| 20260507035116 | 67 | 109 | 0.0 | 3.0 | 0.03 | 0.03 | 0.03 | 92 | 1014.1 |
| 20260507034916 | 67 | 111 | 0.0 | 3.0 | 0.03 | 0.03 | 0.03 | 92 | 1014.0 |
| 20260507034516 | 67 | 111 | 0.0 | 4.0 | 0.03 | 0.03 | 0.03 | 92 | 1014.0 |
| 20260507034315 | 67 | 225 | 0.0 | 4.0 | 0.02 | 0.02 | 0.03 | 92 | 1013.9 |
| 20260507034117 | 67 | 226 | 0.0 | 4.0 | 0.02 | 0.02 | 0.02 | 92 | 1013.9 |
| 20260507033917 | 67 | 231 | 0.0 | 4.0 | 0.02 | 0.02 | 0.02 | 92 | 1013.8 |
| 20260507033714 | 67 | 106 | 0.0 | 0.0 | 0.02 | 0.02 | 0.02 | 92 | 1013.7 |
| 20260507033515 | 67 | 108 | 0.0 | 0.0 | 0.02 | 0.02 | 0.02 | 92 | 1013.6 |
| 20260507032915 | 67 | 113 | 0.0 | 0.0 | 0.01 | 0.01 | 0.01 | 92 | 1013.2 |
| 20260507032714 | 67 | 113 | 0.0 | 0.0 | 0.01 | 0.01 | 0.01 | 92 | 1013.2 |
| 20260507032514 | 67 | 113 | 0.0 | 1.0 | 0.01 | 0.01 | 0.01 | 92 | 1013.1 |
| 20260507032315 | 67 | 113 | 0.0 | 1.0 | 0.01 | 0.01 | 0.01 | 92 | 1012.9 |
| 20260507032114 | 67 | 113 | 0.0 | 1.0 | 0.01 | 0.01 | 0.01 | 92 | 1012.8 |
| 20260507031714 | 67 | 113 | 0.0 | 2.0 | 0.01 | 0.01 | 0.01 | 92 | 1012.9 |
| 20260507031315 | 67 | 113 | 0.0 | 2.0 | 0.01 | 0.01 | 0.01 | 92 | 1013.2 |
| 20260507030914 | 67 | 121 | 0.0 | 1.0 | 0.01 | 0.01 | 0.01 | 92 | 1013.3 |
| 20260507030714 | 67 | 121 | 0.0 | 1.0 | 0.01 | 0.01 | 0.01 | 92 | 1013.4 |
| 20260507030514 | 67 | 121 | 0.0 | 1.0 | 0.00 | 0.00 | 0.00 | 92 | 1013.3 |
| 20260507025713 | 67 | 121 | 0.0 | 3.0 | 0.00 | 0.00 | 0.00 | 92 | 1013.4 |
| 20260507025513 | 67 | 121 | 0.0 | 3.0 | 0.00 | 0.00 | 0.00 | 91 | 1013.3 |
| 20260507025315 | 67 | 121 | 0.0 | 3.0 | 0.00 | 0.00 | 0.00 | 91 | 1013.3 |
| 20260507025117 | 67 | 138 | 0.0 | 0.0 | 0.00 | 0.00 | 0.00 | 91 | 1013.3 |
| 20260507024913 | 67 | 138 | 0.0 | 0.0 | 0.00 | 0.00 | 0.00 | 91 | 1013.3 |
| 20260507024714 | 67 | 146 | 0.0 | 0.0 | 0.00 | 0.00 | 0.00 | 91 | 1013.4 |
| 20260507024113 | 67 | 148 | 0.0 | 0.0 | 0.00 | 0.00 | 0.00 | 91 | 1013.0 |
| 20260507023714 | 67 | 147 | 0.0 | 0.0 | 0.00 | 0.00 | 0.00 | 90 | 1012.9 |
| 20260507023115 | 67 | 148 | 0.0 | 0.0 | 0.00 | 0.00 | 0.00 | 90 | 1012.8 |
| 20260507022714 | 68 | 147 | 0.0 | 0.0 | 0.00 | 0.00 | 0.00 | 90 | 1012.7 |
| 20260507022514 | 68 | 147 | 0.0 | 0.0 | 0.00 | 0.00 | 0.00 | 90 | 1012.6 |
| 20260507022314 | 68 | 147 | 0.0 | 0.0 | 0.00 | 0.00 | 0.00 | 90 | 1012.6 |
| 20260507022114 | 68 | 147 | 0.0 | 0.0 | 0.00 | 0.00 | 0.00 | 90 | 1012.5 |
| 20260507021914 | 68 | 148 | 0.0 | 0.0 | 0.00 | 0.00 | 0.00 | 90 | 1012.5 |
| 20260507021715 | 68 | 148 | 0.0 | 0.0 | 0.00 | 0.00 | 0.00 | 90 | 1012.6 |
| 20260507021515 | 68 | 147 | 0.0 | 0.0 | 0.00 | 0.00 | 0.00 | 90 | 1012.5 |
| 20260507021314 | 68 | 147 | 0.0 | 0.0 | 0.00 | 0.00 | 0.00 | 89 | 1012.5 |
| 20260507020914 | 68 | 147 | 0.0 | 0.0 | 0.00 | 0.00 | 0.00 | 89 | 1012.6 |
| 20260507020715 | 68 | 148 | 0.0 | 0.0 | 0.00 | 0.00 | 0.00 | 89 | 1012.5 |
| 20260507020514 | 68 | 148 | 0.0 | 0.0 | 0.00 | 0.00 | 0.00 | 89 | 1012.4 |
| 20260507020114 | 68 | 147 | 0.0 | 0.0 | 0.00 | 0.00 | 0.00 | 89 | 1012.4 |
| 20260507015513 | 68 | 147 | 0.0 | 0.0 | 0.00 | 0.00 | 0.00 | 89 | 1012.4 |
| 20260507015316 | 68 | 148 | 0.0 | 0.0 | 0.00 | 0.00 | 0.00 | 89 | 1012.4 |
| 20260507015113 | 68 | 147 | 0.0 | 0.0 | 0.00 | 0.00 | 0.00 | 89 | 1012.4 |
| 20260507014913 | 68 | 147 | 0.0 | 0.0 | 0.00 | 0.00 | 0.00 | 89 | 1012.4 |
| 20260507014713 | 68 | 147 | 0.0 | 0.0 | 0.00 | 0.00 | 0.00 | 89 | 1012.5 |
| 20260507014513 | 68 | 147 | 0.0 | 0.0 | 0.00 | 0.00 | 0.00 | 89 | 1012.6 |
| 20260507014313 | 68 | 147 | 0.0 | 0.0 | 0.00 | 0.00 | 0.00 | 89 | 1012.6 |
| 20260507014114 | 68 | 148 | 0.0 | 0.0 | 0.00 | 0.00 | 0.00 | 89 | 1012.5 |
| 20260507013915 | 68 | 148 | 0.0 | 0.0 | 0.00 | 0.00 | 0.00 | 89 | 1012.6 |
| 20260507013714 | 68 | 148 | 0.0 | 0.0 | 0.00 | 0.00 | 0.00 | 89 | 1012.7 |
| 20260507013513 | 68 | 147 | 0.0 | 0.0 | 0.00 | 0.00 | 0.00 | 89 | 1012.7 |
| 20260507013315 | 68 | 147 | 0.0 | 0.0 | 0.00 | 0.00 | 0.00 | 89 | 1012.8 |
| 20260507013109 | 68 | 148 | 0.0 | 0.0 | 0.00 | 0.00 | 0.00 | 89 | 1012.8 |
| 20260507012908 | 68 | 147 | 0.0 | 0.0 | 0.00 | 0.00 | 0.00 | 89 | 1012.9 |
| 20260507012708 | 68 | 148 | 0.0 | 0.0 | 0.00 | 0.00 | 0.00 | 89 | 1012.8 |
| 20260507012504 | 69 | 148 | 0.0 | 0.0 | 0.00 | 0.00 | 0.00 | 89 | 1012.8 |
| 20260507012306 | 69 | 147 | 0.0 | 0.0 | 0.00 | 0.00 | 0.00 | 88 | 1012.7 |
| 20260507012059 | 69 | 148 | 0.0 | 0.0 | 0.00 | 0.00 | 0.00 | 88 | 1012.6 |
| 20260507011900 | 69 | 147 | 0.0 | 0.0 | 0.00 | 0.00 | 0.00 | 88 | 1012.5 |
| 20260507011701 | 69 | 147 | 0.0 | 0.0 | 0.00 | 0.00 | 0.00 | 88 | 1012.4 |
| 20260507011459 | 69 | 148 | 0.0 | 0.0 | 0.00 | 0.00 | 0.00 | 88 | 1012.4 |
| 20260507010854 | 69 | 148 | 0.0 | 0.0 | 0.00 | 0.00 | 0.00 | 88 | 1012.6 |
| 20260507010655 | 69 | 148 | 0.0 | 0.0 | 0.00 | 0.00 | 0.00 | 88 | 1012.7 |
| 20260507010250 | 69 | 147 | 0.0 | 0.0 | 0.00 | 0.00 | 0.00 | 88 | 1012.6 |
| 20260507010050 | 69 | 148 | 0.0 | 0.0 | 0.00 | 0.00 | 0.00 | 88 | 1012.5 |
| 20260507005650 | 69 | 148 | 0.0 | 0.0 | 0.00 | 0.00 | 0.00 | 88 | 1012.5 |
| 20260507005450 | 69 | 148 | 0.0 | 0.0 | 0.00 | 0.00 | 0.00 | 87 | 1012.5 |
| 20260507004850 | 69 | 147 | 0.0 | 0.0 | 0.00 | 0.00 | 0.00 | 87 | 1012.6 |
| 20260507004650 | 69 | 148 | 0.0 | 0.0 | 0.00 | 0.00 | 0.00 | 87 | 1012.5 |
| 20260507004446 | 69 | 148 | 0.0 | 0.0 | 0.00 | 0.00 | 0.00 | 87 | 1012.6 |